DW4657 Weather Reports


Display with metric or nautical units.
time (UTC)temp
F
wind
direction
speed
MPH
gust
MPH
rain 1hr
in
rain 24hr
in
rain mn
in
humidity
%
barometer
mb
20260903202524 76 85 0.0 3.0 0.00 0.16 0.16 84 1011.7
20260903202024 76 0 0.0 3.0 0.00 0.16 0.16 83 1011.8
20260903201548 77 161 0.0 3.0 0.00 0.16 0.16 83 1011.7
20260903201024 77 0 0.0 3.0 0.00 0.16 0.16 83 1011.7
20260903200523 76 0 1.0 4.0 0.00 0.16 0.16 84 1011.6
20260903200043 76 69 1.0 4.0 0.00 0.16 0.16 84 1011.7
20260903195518 76 0 1.0 3.0 0.00 0.16 0.16 84 1011.7
20260903195025 76 7 0.0 4.0 0.00 0.16 0.16 84 1011.7
20260903194542 76 15 1.0 4.0 0.00 0.16 0.16 84 1011.7
20260903194024 76 28 0.0 4.0 0.00 0.16 0.16 84 1011.8
20260903193523 76 18 2.0 4.0 0.00 0.16 0.16 84 1011.8
20260903193045 76 29 2.0 4.0 0.00 0.16 0.16 84 1011.9
20260903192524 76 30 1.0 4.0 0.00 0.16 0.16 85 1012.0
20260903192024 76 37 1.0 4.0 0.00 0.16 0.16 84 1012.0
20260903191545 76 28 2.0 4.0 0.00 0.16 0.16 84 1012.0
20260903191024 76 29 2.0 4.0 0.00 0.16 0.16 84 1012.1
20260903190524 76 28 2.0 4.0 0.00 0.16 0.16 84 1012.2
20260903190044 76 18 1.0 3.0 0.00 0.16 0.16 84 1012.2
20260903185518 76 34 1.0 4.0 0.00 0.16 0.16 84 1012.1
20260903185024 76 28 1.0 4.0 0.00 0.16 0.16 84 1012.2
20260903184552 77 37 1.0 4.0 0.00 0.16 0.16 84 1012.2
20260903184023 77 27 1.0 4.0 0.00 0.16 0.16 84 1012.2
20260903183523 76 31 1.0 4.0 0.00 0.16 0.16 84 1012.2
20260903183047 77 0 0.0 1.0 0.00 0.16 0.16 84 1012.4
20260903182525 77 0 0.0 1.0 0.00 0.16 0.16 83 1012.4
20260903182024 77 0 0.0 1.0 0.00 0.16 0.16 83 1012.5
20260903181545 77 0 0.0 1.0 0.00 0.16 0.16 82 1012.5
20260903181025 78 27 0.0 1.0 0.00 0.16 0.16 81 1012.4
20260903180519 79 0 0.0 1.0 0.00 0.16 0.16 81 1012.3
20260903180046 79 0 0.0 3.0 0.00 0.16 0.16 81 1012.4
20260903175526 79 0 1.0 3.0 0.00 0.16 0.16 79 1012.3
20260903175018 79 0 0.0 3.0 0.00 0.16 0.16 81 1012.4
20260903174539 80 0 0.0 2.0 0.00 0.16 0.16 80 1012.3
20260903174025 79 109 0.0 2.0 0.00 0.16 0.16 80 1012.4
20260903173529 79 162 0.0 2.0 0.00 0.16 0.16 80 1012.4
20260903173046 79 0 0.0 1.0 0.00 0.16 0.16 81 1012.6
20260903172525 79 0 0.0 1.0 0.00 0.16 0.16 82 1012.6
20260903172025 78 0 0.0 1.0 0.00 0.16 0.16 83 1012.8
20260903171554 78 132 0.0 0.0 0.00 0.16 0.16 81 1012.9
20260903171026 78 0 0.0 1.0 0.00 0.16 0.16 83 1012.8
20260903170526 78 0 0.0 1.0 0.00 0.16 0.16 83 1012.7
20260903170042 78 70 0.0 1.0 0.00 0.16 0.16 85 1012.6
20260903165522 77 127 0.0 2.0 0.00 0.16 0.16 85 1012.6
20260903165028 76 162 1.0 2.0 0.00 0.16 0.16 85 1012.6
20260903164550 76 0 0.0 2.0 0.00 0.16 0.16 86 1012.5
20260903164025 76 0 0.0 2.0 0.00 0.16 0.16 86 1012.5
20260903163526 76 0 0.0 3.0 0.00 0.16 0.16 86 1012.6
20260903163044 75 206 0.0 3.0 0.00 0.16 0.16 86 1012.6
20260903162523 75 203 0.0 2.0 0.00 0.16 0.16 87 1012.5
20260903162021 75 0 0.0 3.0 0.00 0.16 0.16 89 1012.5
20260903161541 74 140 1.0 3.0 0.00 0.16 0.16 89 1012.7
20260903161022 74 0 0.0 1.0 0.00 0.16 0.16 90 1012.7
20260903160523 74 215 0.0 2.0 0.00 0.16 0.16 92 1012.9
20260903160045 73 181 0.0 2.0 0.00 0.16 0.16 92 1012.9
20260903155524 73 0 0.0 1.0 0.00 0.16 0.16 92 1013.0
20260903155025 73 0 0.0 2.0 0.00 0.16 0.16 92 1013.1
20260903154545 73 224 0.0 2.0 0.00 0.16 0.16 92 1013.0
20260903154025 73 0 0.0 2.0 0.00 0.16 0.16 93 1013.1
20260903153527 72 0 0.0 2.0 0.00 0.16 0.16 93 1013.3
20260903153046 72 155 0.0 2.0 0.00 0.16 0.16 93 1013.3
20260903152523 72 0 0.0 4.0 0.00 0.16 0.16 93 1013.3
20260903152025 72 188 0.0 4.0 0.00 0.16 0.16 94 1013.3
20260903151545 72 226 2.0 4.0 0.00 0.16 0.16 95 1013.3
20260903151025 72 158 1.0 3.0 0.00 0.16 0.16 96 1013.3
20260903150525 71 0 1.0 3.0 0.00 0.16 0.16 95 1013.4
20260903150046 71 0 0.0 2.0 0.00 0.16 0.16 96 1013.6
20260903145524 71 0 0.0 5.0 0.00 0.16 0.16 96 1013.6
20260903145024 71 178 0.0 5.0 0.00 0.16 0.16 96 1013.7
20260903144543 71 295 1.0 4.0 0.00 0.16 0.16 96 1013.7
20260903144021 71 0 1.0 4.0 0.00 0.16 0.16 97 1013.8
20260903143522 70 210 0.0 3.0 0.00 0.16 0.16 97 1013.8
20260903143048 70 150 0.0 4.0 0.00 0.16 0.16 97 1013.8
20260903142524 70 0 1.0 4.0 0.00 0.16 0.16 97 1013.8
20260903142024 70 226 1.0 4.0 0.00 0.16 0.16 97 1014.0
20260903141549 70 229 0.0 3.0 0.00 0.16 0.16 97 1013.9
20260903141024 70 0 0.0 6.0 0.00 0.16 0.16 97 1014.0
20260903140526 69 145 1.0 6.0 0.00 0.16 0.16 97 1014.1
20260903140048 69 141 0.0 3.0 0.00 0.16 0.16 97 1014.2
20260903135524 69 0 0.0 5.0 0.00 0.16 0.16 97 1014.2
20260903135022 69 0 1.0 5.0 0.00 0.16 0.16 97 1014.3
20260903134548 69 209 1.0 3.0 0.00 0.16 0.16 97 1014.1
20260903134023 68 229 1.0 3.0 0.00 0.16 0.16 97 1014.0
20260903133528 68 262 1.0 2.0 0.00 0.16 0.16 97 1014.1
20260903133044 68 0 0.0 1.0 0.00 0.16 0.16 97 1014.0
20260903132523 68 130 0.0 1.0 0.00 0.16 0.16 97 1013.9
20260903132024 67 212 0.0 1.0 0.00 0.16 0.16 97 1014.1
20260903131547 67 0 0.0 1.0 0.00 0.16 0.16 97 1014.2
20260903131024 67 215 0.0 2.0 0.00 0.16 0.16 97 1014.2
20260903130524 67 152 1.0 2.0 0.00 0.16 0.16 97 1014.2
20260903130059 67 0 0.0 2.0 0.01 0.16 0.16 97 1014.3
20260903125524 67 276 0.0 2.0 0.01 0.16 0.16 97 1014.2
20260903125024 67 138 0.0 2.0 0.01 0.16 0.16 97 1014.2
20260903124554 67 0 0.0 3.0 0.01 0.16 0.16 97 1014.2
20260903124021 67 152 0.0 4.0 0.01 0.16 0.16 97 1014.2
20260903123521 67 94 1.0 4.0 0.01 0.16 0.16 97 1014.3
20260903123047 66 0 0.0 3.0 0.02 0.16 0.16 96 1014.3
20260903122524 66 0 1.0 4.0 0.02 0.16 0.16 96 1014.4
20260903122024 66 0 1.0 6.0 0.02 0.16 0.16 96 1014.5
20260903121545 66 235 1.0 6.0 0.02 0.16 0.16 96 1014.5
20260903121025 66 104 2.0 6.0 0.03 0.16 0.16 96 1014.6
20260903120524 66 178 2.0 5.0 0.03 0.16 0.16 96 1014.7
20260903120045 66 0 1.0 6.0 0.02 0.15 0.15 96 1014.9
20260903115526 66 0 1.0 6.0 0.02 0.15 0.15 96 1015.1
20260903115024 66 123 1.0 5.0 0.03 0.15 0.15 96 1014.9
20260903114541 66 150 1.0 6.0 0.03 0.15 0.15 96 1014.9
20260903114020 65 61 2.0 6.0 0.03 0.15 0.15 96 1014.9
20260903113518 65 241 2.0 6.0 0.03 0.15 0.15 96 1014.8
20260903113040 65 215 1.0 6.0 0.02 0.14 0.14 96 1014.8
20260903112524 65 193 2.0 5.0 0.02 0.14 0.14 96 1014.8
20260903112024 65 170 1.0 6.0 0.02 0.14 0.14 96 1014.8
20260903111544 65 104 2.0 6.0 0.02 0.14 0.14 96 1014.9
20260903111024 65 122 0.0 3.0 0.02 0.13 0.13 96 1014.9
20260903110519 65 141 1.0 7.0 0.02 0.13 0.13 96 1015.0
20260903110045 65 208 1.0 7.0 0.02 0.13 0.13 96 1014.9
20260903105523 65 147 2.0 6.0 0.03 0.13 0.13 96 1014.9
20260903105024 65 139 1.0 5.0 0.02 0.12 0.12 96 1014.9
20260903104542 65 136 2.0 5.0 0.04 0.12 0.12 96 1014.8
20260903104027 64 149 1.0 5.0 0.07 0.12 0.12 96 1014.7
20260903103523 64 133 1.0 6.0 0.08 0.12 0.12 96 1014.8
20260903103042 64 113 2.0 6.0 0.08 0.12 0.12 95 1014.7
20260903102521 64 150 1.0 5.0 0.08 0.12 0.12 95 1014.7
20260903102026 64 111 2.0 5.0 0.08 0.12 0.12 95 1014.6
20260903101551 63 122 2.0 4.0 0.07 0.11 0.11 95 1014.6
20260903101024 63 122 1.0 4.0 0.07 0.11 0.11 95 1014.6
20260903100524 63 113 0.0 4.0 0.08 0.11 0.11 95 1014.6
20260903100104 63 141 1.0 5.0 0.08 0.11 0.11 95 1014.9
20260903095523 63 87 2.0 5.0 0.07 0.10 0.10 94 1014.8
20260903095018 63 105 1.0 5.0 0.07 0.10 0.10 94 1014.7
20260903094553 64 148 3.0 5.0 0.04 0.07 0.07 93 1014.9
20260903094022 64 119 0.0 1.0 0.02 0.04 0.04 96 1015.1
20260903093523 64 0 0.0 1.0 0.02 0.04 0.04 94 1015.2
20260903093041 64 0 0.0 3.0 0.04 0.04 0.04 95 1015.2
20260903092527 63 116 0.0 3.0 0.04 0.04 0.04 94 1015.0
20260903092025 63 0 0.0 4.0 0.04 0.04 0.04 94 1015.0
20260903091545 62 124 1.0 4.0 0.04 0.04 0.04 93 1015.0
20260903091028 62 98 1.0 2.0 0.04 0.04 0.04 93 1014.9
20260903090523 62 126 0.0 3.0 0.03 0.03 0.03 93 1015.2
20260903090056 63 0 0.0 3.0 0.03 0.03 0.03 92 1015.2
20260903085523 63 148 1.0 3.0 0.03 0.03 0.03 92 1015.1
20260903085020 63 0 0.0 0.0 0.03 0.03 0.03 92 1015.4
20260903084542 63 0 0.0 1.0 0.03 0.03 0.03 91 1015.6
20260903084025 63 0 0.0 2.0 0.02 0.02 0.02 91 1015.7
20260903083524 63 0 0.0 2.0 0.01 0.01 0.01 91 1015.8
20260903083058 63 107 0.0 2.0 0.00 0.00 0.00 90 1015.8
20260903082526 63 105 1.0 4.0 0.00 0.00 0.00 90 1015.7
20260903082024 63 127 1.0 4.0 0.00 0.00 0.00 90 1015.9
20260903081545 63 105 1.0 4.0 0.00 0.00 0.00 90 1015.8
20260903081027 63 130 1.0 4.0 0.00 0.00 0.00 89 1015.9
20260903080524 63 0 1.0 4.0 0.00 0.00 0.00 89 1016.0
20260903080045 63 119 2.0 3.0 0.00 0.00 0.00 89 1015.9
20260903075523 63 117 0.0 3.0 0.00 0.00 0.00 89 1016.1
20260903075018 63 104 1.0 3.0 0.00 0.00 0.00 89 1016.1
20260903074543 63 0 0.0 3.0 0.00 0.00 0.00 89 1016.2
20260903074021 63 172 1.0 3.0 0.00 0.00 0.00 88 1016.4
20260903073524 63 121 1.0 4.0 0.00 0.00 0.00 88 1016.3
20260903073101 63 115 1.0 4.0 0.00 0.00 0.00 88 1016.4
20260903072524 62 122 1.0 4.0 0.00 0.00 0.00 88 1016.5
20260903072028 62 120 2.0 4.0 0.00 0.00 0.00 88 1016.6
20260903071559 62 125 1.0 4.0 0.00 0.00 0.00 88 1016.7
20260903071019 62 129 2.0 4.0 0.00 0.00 0.00 88 1016.8
20260903070519 62 118 1.0 2.0 0.00 0.00 0.00 88 1016.9
20260903070047 62 124 0.0 2.0 0.00 0.00 0.00 88 1017.0
20260903065525 62 119 1.0 2.0 0.00 0.00 0.00 88 1017.1
20260903065023 62 0 0.0 2.0 0.00 0.00 0.00 88 1017.1
20260903064546 62 0 0.0 2.0 0.00 0.00 0.00 88 1017.1
20260903064024 62 0 0.0 2.0 0.00 0.00 0.00 88 1017.1
20260903063524 62 122 0.0 1.0 0.00 0.00 0.00 88 1017.3
20260903063048 62 0 0.0 1.0 0.00 0.00 0.00 89 1017.3
20260903062526 62 0 0.0 1.0 0.00 0.00 0.00 89 1017.4
20260903062023 62 0 0.0 1.0 0.00 0.00 0.00 89 1017.6
20260903061543 62 0 0.0 0.0 0.00 0.00 0.00 89 1017.8
20260903061019 62 0 0.0 0.0 0.00 0.00 0.00 89 1017.8
20260903060523 62 0 0.0 0.0 0.00 0.00 0.00 89 1017.9
20260903060112 62 0 0.0 0.0 0.00 0.00 0.00 88 1018.0
20260903055528 62 0 0.0 1.0 0.00 0.00 0.00 88 1018.2
20260903055024 62 0 0.0 1.0 0.00 0.00 0.00 89 1018.3
20260903054544 62 0 0.0 2.0 0.00 0.00 0.00 89 1018.3
20260903054025 62 0 0.0 2.0 0.00 0.00 0.00 89 1018.4
20260903053524 62 94 0.0 2.0 0.00 0.00 0.00 89 1018.3
20260903053041 62 93 0.0 2.0 0.00 0.00 0.00 89 1018.3
20260903052522 62 0 0.0 2.0 0.00 0.00 0.00 90 1018.4
20260903052025 62 0 0.0 2.0 0.00 0.00 0.00 90 1018.3
20260903051542 62 105 1.0 2.0 0.00 0.00 0.00 90 1018.5
20260903051023 62 110 0.0 2.0 0.00 0.00 0.00 90 1018.8
20260903050524 62 0 0.0 0.0 0.00 0.00 0.00 91 1019.0
20260903050046 62 0 0.0 0.0 0.00 0.00 0.00 91 1018.9
20260903045524 62 0 0.0 0.0 0.00 0.00 0.00 91 1019.0
20260903045023 62 0 0.0 0.0 0.00 0.00 0.00 91 1018.9
20260903044542 62 0 0.0 0.0 0.00 0.00 0.00 91 1018.9
20260903044021 61 0 0.0 0.0 0.00 0.00 0.00 91 1018.9
20260903043520 61 0 0.0 0.0 0.00 0.00 0.00 91 1018.7
20260903043041 61 0 0.0 0.0 0.00 0.00 0.00 91 1018.7
20260903042520 61 0 0.0 0.0 0.00 0.00 0.00 91 1018.8
20260903042025 61 0 0.0 0.0 0.00 0.00 0.00 91 1018.7
20260903041545 61 0 0.0 1.0 0.00 0.00 0.00 91 1018.6
20260903041023 61 0 0.0 1.0 0.00 0.00 0.00 91 1018.4
20260903040524 61 120 0.0 1.0 0.00 0.00 0.00 91 1018.6
20260903040058 61 0 0.0 1.0 0.00 0.00 0.00 92 1018.7
20260903035519 61 0 0.0 0.0 0.00 0.00 0.00 92 1018.8
20260903035023 61 0 0.0 0.0 0.00 0.00 0.00 92 1018.8
20260903034548 61 0 0.0 0.0 0.00 0.00 0.00 92 1018.9
20260903034026 61 0 0.0 0.0 0.00 0.00 0.00 92 1018.9
20260903033524 60 0 0.0 0.0 0.00 0.00 0.00 92 1019.1
20260903033046 60 0 0.0 0.0 0.00 0.00 0.00 91 1019.3
20260903032525 60 0 0.0 0.0 0.00 0.00 0.00 91 1019.3
20260903032025 60 0 0.0 1.0 0.00 0.00 0.00 91 1019.2
20260903031544 60 0 0.0 1.0 0.00 0.00 0.00 91 1019.2
20260903031025 60 0 0.0 1.0 0.00 0.00 0.00 91 1019.2
20260903030525 60 0 0.0 0.0 0.00 0.00 0.00 90 1019.5
20260903030042 60 0 0.0 0.0 0.00 0.00 0.00 90 1019.5
20260903025523 61 0 0.0 0.0 0.00 0.00 0.00 90 1019.6
20260903025023 61 0 0.0 0.0 0.00 0.00 0.00 90 1019.5
20260903024544 61 0 0.0 0.0 0.00 0.00 0.00 89 1019.5
20260903024024 61 0 0.0 0.0 0.00 0.00 0.00 89 1019.6
20260903023523 61 0 0.0 0.0 0.00 0.00 0.00 89 1019.7
20260903023053 62 0 0.0 0.0 0.00 0.00 0.00 88 1019.7
20260903022519 62 0 0.0 0.0 0.00 0.00 0.00 88 1019.7
20260903022019 62 0 0.0 0.0 0.00 0.00 0.00 88 1019.5
20260903021543 62 0 0.0 0.0 0.00 0.00 0.00 88 1019.5
20260903021024 63 0 0.0 1.0 0.00 0.00 0.00 88 1019.5
20260903020524 63 120 0.0 1.0 0.00 0.00 0.00 87 1019.4
20260903020043 63 0 0.0 0.0 0.00 0.00 0.00 88 1019.5
20260903015525 63 0 0.0 1.0 0.00 0.00 0.00 88 1019.5
20260903015019 63 0 0.0 1.0 0.00 0.00 0.00 87 1019.4
20260903014552 63 127 0.0 1.0 0.00 0.00 0.00 87 1019.4
20260903014018 63 0 0.0 1.0 0.00 0.00 0.00 87 1019.6
20260903013524 63 0 0.0 2.0 0.00 0.00 0.00 87 1019.6
20260903013048 63 117 0.0 2.0 0.00 0.00 0.00 87 1019.6
20260903012524 63 0 0.0 1.0 0.00 0.00 0.00 87 1019.6
20260903012024 63 113 0.0 1.0 0.00 0.00 0.00 87 1019.6
20260903011546 63 0 0.0 1.0 0.00 0.00 0.00 86 1019.7
20260903011024 63 0 0.0 1.0 0.00 0.00 0.00 86 1019.9
20260903010525 64 0 0.0 1.0 0.00 0.00 0.00 85 1019.8
20260903010048 64 0 0.0 1.0 0.00 0.00 0.00 85 1019.9
20260903005522 64 0 0.0 0.0 0.00 0.00 0.00 84 1020.0
20260903005023 65 0 0.0 0.0 0.00 0.00 0.00 84 1020.0
20260903004542 65 0 0.0 1.0 0.00 0.00 0.00 84 1020.0
20260903004025 65 0 0.0 1.0 0.00 0.00 0.00 84 1019.9
20260903003525 65 111 0.0 1.0 0.00 0.00 0.00 84 1019.9
20260903003046 65 0 0.0 1.0 0.00 0.00 0.00 84 1020.0
20260903002528 65 0 0.0 1.0 0.00 0.00 0.00 84 1019.8
20260903002024 65 0 0.0 1.0 0.00 0.00 0.00 84 1020.0
20260903001549 65 0 0.0 0.0 0.00 0.00 0.00 84 1020.2
20260903001021 65 0 0.0 0.0 0.00 0.00 0.00 83 1020.3
20260903000519 65 0 0.0 0.0 0.00 0.00 0.00 83 1020.4
20260903000046 65 0 0.0 0.0 0.00 0.00 0.00 82 1020.6
20260902235524 66 0 0.0 0.0 0.00 0.00 0.00 82 1020.6
20260902235023 66 0 0.0 0.0 0.00 0.00 0.00 81 1020.7
20260902234559 66 0 0.0 0.0 0.00 0.00 0.00 80 1020.6
20260902234027 67 0 0.0 0.0 0.00 0.00 0.00 80 1020.6
20260902233524 67 0 0.0 1.0 0.00 0.00 0.00 79 1020.4
20260902233044 67 0 0.0 1.0 0.00 0.00 0.00 79 1020.5
20260902232519 67 0 0.0 1.0 0.00 0.00 0.00 79 1020.4
20260902232023 67 0 0.0 1.0 0.00 0.00 0.00 78 1020.4
20260902231545 67 0 0.0 1.0 0.00 0.00 0.00 78 1020.4
20260902231024 68 0 0.0 1.0 0.00 0.00 0.00 78 1020.4
20260902230524 68 119 0.0 1.0 0.00 0.00 0.00 77 1020.4
20260902230046 68 0 0.0 2.0 0.00 0.00 0.00 77 1020.4
20260902225524 68 122 0.0 3.0 0.00 0.00 0.00 76 1020.4
20260902225025 68 131 0.0 3.0 0.00 0.00 0.00 75 1020.6
20260902224546 68 0 0.0 2.0 0.00 0.00 0.00 75 1020.6
20260902224024 69 93 0.0 2.0 0.00 0.00 0.00 75 1020.5
20260902223518 69 0 0.0 2.0 0.00 0.00 0.00 75 1020.5
20260902223046 69 0 0.0 1.0 0.00 0.00 0.00 74 1020.4
20260902222524 69 0 0.0 3.0 0.00 0.00 0.00 75 1020.6
20260902222024 69 64 0.0 8.0 0.00 0.00 0.00 74 1020.5
20260902221548 69 133 0.0 8.0 0.00 0.00 0.00 74 1020.6
20260902221025 69 0 1.0 6.0 0.00 0.00 0.00 73 1020.4
20260902220524 70 143 2.0 6.0 0.00 0.00 0.00 72 1020.4
20260902220044 70 89 2.0 9.0 0.00 0.00 0.00 71 1020.6
20260902215522 70 121 1.0 9.0 0.00 0.00 0.00 70 1020.4
20260902215019 70 69 2.0 8.0 0.00 0.00 0.00 70 1020.6
20260902214545 71 0 0.0 4.0 0.00 0.00 0.00 70 1020.5
20260902214020 71 158 1.0 5.0 0.00 0.00 0.00 69 1020.4
20260902213524 71 0 0.0 5.0 0.00 0.00 0.00 70 1020.2
20260902213044 71 159 1.0 6.0 0.00 0.00 0.00 70 1020.1
20260902212523 71 99 2.0 6.0 0.00 0.00 0.00 69 1020.0
20260902212026 72 131 0.0 4.0 0.00 0.00 0.00 68 1020.1
20260902211543 72 18 0.0 2.0 0.00 0.00 0.00 67 1020.3
20260902211026 72 86 0.0 4.0 0.00 0.00 0.00 67 1020.6
20260902210519 72 100 1.0 4.0 0.00 0.00 0.00 67 1020.5
20260902210042 72 0 0.0 7.0 0.00 0.00 0.00 66 1020.7
20260902205525 72 188 3.0 7.0 0.00 0.00 0.00 65 1020.6
20260902205024 72 86 1.0 3.0 0.00 0.00 0.00 68 1020.7
20260902204549 72 0 0.0 2.0 0.00 0.00 0.00 66 1020.7
20260902204024 73 101 0.0 2.0 0.00 0.00 0.00 66 1020.6
20260902203526 73 39 0.0 3.0 0.00 0.00 0.00 66 1020.5
20260902203045 73 30 1.0 3.0 0.00 0.00 0.00 67 1020.6